Newberry, MI

2:53 PM EDT on August 18, 2017 (GMT -0400)
Luce County

Weather History for KERY - December, 2013

Change the Weather History Date:

Tuesday, December 3, 2013

  Actual Average Record
Temperature  
Mean Temperature 16 °F -  
Max Temperature 22 °F 29 °F 58 °F (1982)
Min Temperature 10 °F 17 °F -8 °F (1940)
Degree Days  
Heating Degree Days 49    
Moisture  
Dew Point 15 °F    
Average Humidity 93    
Maximum Humidity 95    
Minimum Humidity 91    
Precipitation  
Precipitation 0.00 in - - ()
Sea Level Pressure  
Sea Level Pressure 29.95 in    
Wind  
Wind Speed 5 mph (ENE)    
Max Wind Speed 9 mph    
Max Gust Speed -    
Visibility 9 miles    
Events Snow    
Averages and records for this station are not official NWS values.
T = Trace of Precipitation, MM = Missing Value Source: NWS Daily Summary

Daily Weather History Graph

Daily Weather History Graph

Search for Another Location

Airport or City:

Trip Planner

Search our weather history database for the weather conditions in past years. The results will help you decide how hot, cold, wet, or windy it might be!

Date:

Astronomy

Dec. 03, 2013 Rise Set
Actual Time 8:06 AM EST 4:56 PM EST
Civil Twilight 7:32 AM EST 5:30 PM EST
Nautical Twilight 6:54 AM EST 6:08 PM EST
Astronomical Twilight 6:18 AM EST 6:44 PM EST
Moon 8:34 AM EST (12/3) 6:00 PM EST (12/3)
Length of Visible Light 9h 57m
Length of Day
8h 49m
New Moon, 1% of the Moon is Illuminated
Dec 3
New Moon
Dec 9
First Quarter
Dec 17
Full
Dec 25
Last Quarter
Jan 1
New

Hourly Weather History & Observations

Time (EST) Temp. Windchill Dew Point Humidity Pressure Visibility Wind Dir Wind Speed Gust Speed Precip Events Conditions
12:15 AM 15.3 °F 7.9 °F 13.8 °F 94% 29.95 in 10.0 mi NE 4.6 mph - N/A   Clear
12:36 AM 13.8 °F 8.0 °F 12.2 °F 93% 29.95 in 10.0 mi East 3.5 mph - N/A   Clear
12:55 AM 13.5 °F 7.5 °F 12.0 °F 94% 29.94 in 10.0 mi East 3.5 mph - N/A   Clear
1:15 AM 12.9 °F 5.2 °F 11.1 °F 93% 29.94 in 10.0 mi ENE 4.6 mph - N/A   Clear
1:36 AM 14.2 °F 6.7 °F 12.7 °F 94% 29.94 in 10.0 mi East 4.6 mph - N/A   Clear
1:55 AM 12.7 °F 3.6 °F 10.9 °F 92% 29.94 in 10.0 mi ENE 5.8 mph - N/A   Clear
2:15 AM 14.0 °F 8.2 °F 12.6 °F 94% 29.94 in 10.0 mi ENE 3.5 mph - N/A   Clear
2:36 AM 12.9 °F 6.9 °F 11.3 °F 93% 29.94 in 10.0 mi ENE 3.5 mph - N/A   Clear
2:55 AM 12.2 °F 1.7 °F 10.4 °F 92% 29.94 in 10.0 mi ENE 6.9 mph - N/A   Clear
3:15 AM 11.5 °F 3.5 °F 9.7 °F 92% 29.94 in 10.0 mi NE 4.6 mph - N/A   Clear
3:35 AM 11.3 °F 1.9 °F 9.1 °F 91% 29.94 in 10.0 mi East 5.8 mph - N/A   Clear
3:55 AM 11.7 °F 2.3 °F 9.7 °F 92% 29.94 in 10.0 mi East 5.8 mph - N/A   Clear
4:15 AM 11.8 °F 2.5 °F 9.7 °F 91% 29.94 in 10.0 mi East 5.8 mph - N/A   Clear
4:35 AM 11.5 °F 2.1 °F 9.5 °F 92% 29.94 in 10.0 mi East 5.8 mph - N/A   Clear
4:55 AM 11.5 °F 2.1 °F 9.7 °F 92% 29.94 in 10.0 mi East 5.8 mph - N/A   Clear
5:16 AM 12.0 °F 1.5 °F 9.9 °F 91% 29.94 in 10.0 mi East 6.9 mph - N/A   Clear
5:35 AM 12.6 °F 6.5 °F 10.6 °F 92% 29.94 in 10.0 mi ESE 3.5 mph - N/A   Clear
5:55 AM 11.3 °F 5.1 °F 9.3 °F 92% 29.94 in 10.0 mi East 3.5 mph - N/A   Clear
6:16 AM 10.6 °F - 8.6 °F 92% 29.94 in 10.0 mi Calm Calm - N/A   Clear
6:35 AM 10.4 °F 4.0 °F 8.4 °F 92% 29.94 in 10.0 mi NNE 3.5 mph - N/A   Clear
6:55 AM 11.1 °F - 9.1 °F 92% 29.95 in 10.0 mi Calm Calm - N/A   Scattered Clouds
7:16 AM 11.1 °F 4.9 °F 9.1 °F 92% 29.95 in 10.0 mi NE 3.5 mph - N/A   Mostly Cloudy
7:36 AM 11.3 °F 3.3 °F 9.3 °F 92% 29.95 in 10.0 mi NE 4.6 mph - N/A   Scattered Clouds
7:55 AM 11.3 °F 3.3 °F 9.3 °F 92% 29.95 in 10.0 mi NE 4.6 mph - N/A   Scattered Clouds
8:12 AM 11.3 °F 3.3 °F 9.3 °F 92% 29.95 in 10.0 mi ENE 4.6 mph - N/A   Mostly Cloudy
8:35 AM 12.0 °F 5.9 °F 10.2 °F 92% 29.96 in 10.0 mi ENE 3.5 mph - N/A   Unknown
8:55 AM 12.2 °F 6.1 °F 10.2 °F 92% 29.97 in 10.0 mi NE 3.5 mph - N/A   Overcast
9:15 AM 12.2 °F 6.1 °F 10.2 °F 92% 29.98 in 10.0 mi ENE 3.5 mph - N/A   Overcast
9:35 AM 12.6 °F 6.5 °F 10.6 °F 92% 29.97 in 10.0 mi NE 3.5 mph - N/A   Overcast
9:53 AM 12.7 °F 5.0 °F 10.9 °F 92% 29.97 in - NE 4.6 mph - N/A   Unknown
10:16 AM - - - N/A% 29.98 in - NE 4.6 mph - N/A   Unknown
10:35 AM 14.0 °F 5.1 °F 12.2 °F 93% 29.98 in 10.0 mi NE 5.8 mph - N/A   Unknown
10:55 AM 14.5 °F 5.7 °F 12.7 °F 93% 29.99 in 10.0 mi ENE 5.8 mph - N/A   Overcast
11:15 AM 14.9 °F 7.5 °F 13.1 °F 93% 29.99 in 10.0 mi ENE 4.6 mph - N/A   Overcast
11:35 AM 15.3 °F 6.6 °F 13.5 °F 93% 29.98 in 10.0 mi ENE 5.8 mph - N/A   Overcast
11:55 AM 15.8 °F 5.1 °F 14.0 °F 93% 29.98 in 10.0 mi ENE 8.1 mph - N/A   Overcast
12:15 PM 16.5 °F 6.0 °F 14.9 °F 93% 29.97 in 10.0 mi ENE 8.1 mph - N/A Snow Light Snow
12:35 PM 16.7 °F 8.3 °F 14.9 °F 93% 29.97 in 10.0 mi NE 5.8 mph - N/A Snow Light Snow
12:56 PM 17.2 °F 10.2 °F 15.6 °F 93% 29.97 in 10.0 mi NE 4.6 mph - N/A   Overcast
1:15 PM 17.6 °F 9.3 °F 16.2 °F 94% 29.96 in 5.0 mi NE 5.8 mph - N/A Snow Light Snow
1:35 PM 18.3 °F 11.5 °F 16.7 °F 93% 29.96 in 10.0 mi ENE 4.6 mph - N/A   Overcast
1:56 PM 18.5 °F 11.7 °F 17.2 °F 95% 29.96 in 1.5 mi NE 4.6 mph - N/A Snow Light Snow
2:15 PM 18.9 °F 10.8 °F 17.4 °F 94% 29.95 in 2.0 mi NNE 5.8 mph - N/A Snow Light Snow
2:35 PM 19.0 °F 10.0 °F 17.6 °F 94% 29.95 in 10.0 mi NNE 6.9 mph - N/A   Overcast
2:55 PM 19.2 °F 11.3 °F 17.8 °F 94% 29.94 in 7.0 mi NE 5.8 mph - N/A Snow Light Snow
3:15 PM 19.4 °F 10.4 °F 18.1 °F 95% 29.94 in 3.0 mi NE 6.9 mph - N/A Snow Light Snow
3:35 PM 19.8 °F 10.8 °F 18.3 °F 94% 29.94 in 4.0 mi ENE 6.9 mph - N/A Snow Light Snow
3:55 PM 19.9 °F 10.1 °F 18.5 °F 94% 29.94 in 7.0 mi NE 8.1 mph - N/A Snow Light Snow
4:15 PM 19.9 °F 11.1 °F 18.5 °F 94% 29.94 in 7.0 mi ENE 6.9 mph - N/A Snow Light Snow
4:35 PM 20.1 °F 12.3 °F 18.9 °F 95% 29.95 in 5.0 mi NE 5.8 mph - N/A Snow Light Snow
4:55 PM 20.3 °F 11.5 °F 19.0 °F 95% 29.96 in 3.0 mi NE 6.9 mph - N/A Snow Light Snow
5:15 PM 20.3 °F 11.5 °F 19.0 °F 95% 29.95 in 7.0 mi ENE 6.9 mph - N/A Snow Light Snow
5:35 PM 20.3 °F 11.5 °F 19.0 °F 95% 29.95 in 10.0 mi NE 6.9 mph - N/A   Overcast
5:55 PM 20.3 °F 11.5 °F 18.9 °F 94% 29.95 in 10.0 mi ENE 6.9 mph - N/A   Overcast
6:15 PM 20.3 °F 11.5 °F 18.9 °F 94% 29.95 in 10.0 mi ENE 6.9 mph - N/A   Overcast
6:35 PM 20.3 °F 9.8 °F 19.0 °F 95% 29.95 in 10.0 mi ENE 9.2 mph - N/A   Overcast
6:55 PM 20.3 °F 11.5 °F 18.9 °F 94% 29.95 in 10.0 mi ENE 6.9 mph - N/A Snow Light Snow
7:16 PM 20.7 °F 11.0 °F 19.0 °F 93% 29.95 in 10.0 mi ENE 8.1 mph - N/A Snow Light Snow
7:35 PM 20.7 °F 11.9 °F 18.9 °F 93% 29.96 in 10.0 mi ENE 6.9 mph - N/A   Overcast
7:55 PM 21.0 °F 11.4 °F 19.2 °F 93% 29.96 in 10.0 mi ENE 8.1 mph - N/A   Overcast
8:16 PM 21.2 °F 12.6 °F 19.2 °F 92% 29.95 in 10.0 mi ENE 6.9 mph - N/A   Overcast
8:35 PM 21.2 °F 13.6 °F 19.4 °F 93% 29.95 in 10.0 mi ENE 5.8 mph - N/A   Overcast
8:55 PM 21.6 °F 13.0 °F 19.4 °F 91% 29.95 in 10.0 mi ENE 6.9 mph - N/A   Overcast
9:15 PM 21.7 °F 13.2 °F 19.6 °F 91% 29.95 in 7.0 mi ENE 6.9 mph - N/A   Overcast
9:35 PM 21.7 °F 13.2 °F 19.4 °F 91% 29.95 in 10.0 mi ENE 6.9 mph - N/A   Overcast
9:56 PM 21.9 °F 11.7 °F 19.8 °F 91% 29.93 in 10.0 mi ENE 9.2 mph - N/A   Overcast
10:15 PM 21.9 °F 12.5 °F 19.9 °F 92% 29.94 in 10.0 mi ENE 8.1 mph - N/A   Overcast
10:35 PM 22.1 °F 13.7 °F 20.1 °F 92% 29.94 in 4.0 mi ENE 6.9 mph - N/A Snow Light Snow
10:55 PM 21.9 °F 14.5 °F 19.9 °F 92% 29.94 in 5.0 mi ENE 5.8 mph - N/A Snow Light Snow
11:15 PM 21.9 °F 13.4 °F 19.9 °F 92% 29.95 in 2.5 mi ENE 6.9 mph - N/A Snow Light Snow
11:35 PM 21.7 °F 13.2 °F 20.1 °F 93% 29.95 in 2.0 mi NE 6.9 mph - N/A Snow Light Snow
11:55 PM 21.6 °F 12.1 °F 19.9 °F 93% 29.95 in 5.0 mi NE 8.1 mph - N/A Snow Light Snow